Weather History for KMOT - April, 2014

Change the Weather History Date:

Monday, April 7, 2014

  Actual Average Record
Temperature  
Mean Temperature 41 °F 39 °F  
Max Temperature 54 °F 50 °F 81 °F (1988)
Min Temperature 27 °F 28 °F -6 °F (1936)
Degree Days  
Heating Degree Days 24 26  
Month to date heating degree days 232 191  
Since 1 July heating degree days 8748 7906  
Cooling Degree Days 0 0  
Month to date cooling degree days 0 0  
Year to date cooling degree days 0 0  
Moisture  
Dew Point 28 °F    
Average Humidity 63    
Maximum Humidity 92    
Minimum Humidity 34    
Precipitation  
Precipitation T in 0.03 in 0.84 in (1980)
Month to date precipitation 0.11 0.22  
Year to date precipitation 0.52 1.97  
Sea Level Pressure  
Sea Level Pressure 29.98 in    
Wind  
Wind Speed 13 mph (West)    
Max Wind Speed 32 mph    
Max Gust Speed 39 mph    
Visibility 10 miles    
Events      
T = Trace of Precipitation, MM = Missing Value Source: NWS Daily Summary

Daily Weather History Graph

Daily Weather History Graph

Search for Another Location

Airport or City:

Trip Planner

Search our weather history database for the weather conditions in past years. The results will help you decide how hot, cold, wet, or windy it might be!

Date:

Astronomy

Apr. 07, 2014 Rise Set
Actual Time 7:10 AM CDT 8:24 PM CDT
Civil Twilight 6:38 AM CDT 8:56 PM CDT
Nautical Twilight 6:00 AM CDT 9:35 PM CDT
Astronomical Twilight 5:19 AM CDT 10:16 PM CDT
Moon 12:56 PM CDT (4/7) 3:15 AM CDT (4/7)
Length of Visible Light 14h 17m
Length of Day
13h 13m
First Quarter, 53% of the Moon is Illuminated
Apr 7
First Quarter
Apr 15
Full
Apr 22
Last Quarter
Apr 29
New
May 6
First Quarter

Hourly Weather History & Observations

Time (CDT) Temp. Windchill Dew Point Humidity Pressure Visibility Wind Dir Wind Speed Gust Speed Precip Events Conditions
12:54 AM 32.0 °F 23.6 °F 27.0 °F 82% 29.88 in 10.0 mi SW 10.4 mph - N/A   Clear
1:54 AM 28.9 °F - 26.1 °F 89% 29.89 in 10.0 mi Calm Calm - N/A   Clear
2:54 AM 28.9 °F 21.1 °F 25.0 °F 85% 29.90 in 10.0 mi WSW 8.1 mph - N/A   Clear
3:54 AM 28.0 °F 20.8 °F 25.0 °F 88% 29.90 in 10.0 mi SW 6.9 mph - N/A   Clear
4:54 AM 32.0 °F 24.2 °F 27.0 °F 82% 29.92 in 10.0 mi West 9.2 mph - N/A   Clear
5:54 AM 30.0 °F 25.2 °F 26.1 °F 85% 29.94 in 10.0 mi WSW 4.6 mph - N/A   Mostly Cloudy
6:54 AM 34.0 °F 25.5 °F 28.9 °F 82% 29.95 in 10.0 mi West 11.5 mph - N/A   Mostly Cloudy
7:54 AM 37.0 °F 29.8 °F 30.9 °F 79% 29.97 in 10.0 mi West 10.4 mph - N/A   Overcast
8:54 AM 37.9 °F 32.7 °F 32.0 °F 79% 29.99 in 10.0 mi WSW 6.9 mph - N/A   Overcast
9:54 AM 39.0 °F 32.3 °F 34.0 °F 82% 29.99 in 10.0 mi West 10.4 mph - N/A   Overcast
10:54 AM 46.9 °F - 35.1 °F 63% 29.98 in 10.0 mi West 15.0 mph - N/A   Clear
11:54 AM 51.1 °F - 34.0 °F 52% 29.98 in 10.0 mi WNW 19.6 mph 28.8 mph N/A   Clear
12:54 PM 53.1 °F - 32.0 °F 45% 29.97 in 10.0 mi WNW 25.3 mph 32.2 mph N/A   Mostly Cloudy
1:54 PM 54.0 °F - 30.9 °F 41% 29.97 in 10.0 mi West 25.3 mph 34.5 mph N/A   Partly Cloudy
2:54 PM 51.8 °F - 30.2 °F 44% 29.93 in 10.0 mi WNW 26.5 mph 38.0 mph N/A   Partly Cloudy
3:54 PM 51.1 °F - 25.0 °F 36% 29.99 in 10.0 mi NW 26.5 mph 35.7 mph 0.00 in   Partly Cloudy
4:54 PM 51.1 °F - 26.1 °F 38% 30.00 in 10.0 mi NW 25.3 mph 34.5 mph N/A   Clear
5:54 PM 51.1 °F - 25.0 °F 36% 30.02 in 10.0 mi NW 21.9 mph - N/A   Clear
6:54 PM 48.9 °F - 21.9 °F 35% 30.04 in 10.0 mi NW 19.6 mph 29.9 mph N/A   Clear
7:54 PM 44.1 °F 39.0 °F 26.1 °F 49% 30.05 in 10.0 mi NNW 9.2 mph - N/A   Clear
8:54 PM 37.9 °F 32.1 °F 26.1 °F 62% 30.07 in 10.0 mi WNW 8.1 mph - N/A   Clear
9:54 PM 33.1 °F 27.7 °F 26.1 °F 75% 30.08 in 10.0 mi WNW 5.8 mph - N/A   Clear
10:54 PM 34.0 °F 27.2 °F 26.1 °F 73% 30.07 in 10.0 mi SW 8.1 mph - N/A   Clear
11:54 PM 32.0 °F 24.8 °F 25.0 °F 75% 30.06 in 10.0 mi SW 8.1 mph - N/A   Clear